EHI
0 1 1 1 0 0 0 1 2 2 1 0 0 0 0 0 0 0 1 3 5 7 9 9 9 10 9 7 6 6 5 4 6 5 2 0 0 0 0 0 0 0 0
0 0 0 0 0 0 0 0 1 1 0 0 0 0 0 0 0 0 0 2 4 7 10 10 10 10 9 8 7 6 5 5 6 5 3 1 0 0 0 0 0 0 0
0 0 0 1 2 1 1 0 0 0 0 0 0 0 0 0 0 0 0 1 3 6 9 12 12 11 10 9 7 6 6 6 6 4 3 1 0 0 0 0 0 0 0
0 0 1 2 3 3 2 1 1 1 1 0 0 0 0 0 0 0 0 1 2 4 8 12 13 12 13 12 9 8 8 8 7 5 4 3 1 0 0 0 0 0 0
0 0 2 3 3 3 3 3 2 3 3 2 0 0 0 0 0 0 0 1 2 3 6 10 12 13 16 15 13 11 11 11 11 9 8 5 2 1 1 1 1 0 0
2 2 2 2 3 3 3 3 3 4 4 4 2 0 0 0 1 1 1 2 2 3 5 7 9 12 16 18 16 15 15 15 15 14 13 9 5 3 2 2 1 0 0
4 5 4 4 3 3 3 2 2 3 4 4 3 1 0 0 1 2 2 2 3 3 4 5 7 10 14 16 17 18 19 18 15 15 14 10 7 5 3 1 1 0 0
6 7 7 7 6 5 3 2 3 3 3 4 5 3 1 1 1 1 1 1 1 2 3 4 7 10 11 12 14 18 20 17 14 12 11 9 7 6 4 2 1 0 0
7 7 8 8 8 8 6 5 6 6 6 7 6 4 3 2 1 1 0 0 0 1 2 3 6 7 8 7 8 10 14 14 12 11 9 8 7 6 5 4 2 1 0
7 8 8 9 9 9 9 8 9 9 10 11 9 6 4 3 3 2 1 0 0 0 1 1 3 4 4 4 4 5 7 8 9 9 9 8 7 6 5 4 3 2 1
6 8 10 11 11 10 10 10 10 10 12 13 12 9 6 5 3 3 2 1 0 0 0 0 1 2 2 3 3 5 6 5 5 6 6 6 5 4 4 3 3 3 3
5 7 11 13 13 12 11 10 10 11 12 13 13 10 8 6 4 2 2 1 0 0 0 0 0 0 2 2 3 6 7 5 3 3 3 3 3 3 3 3 3 3 3
4 6 9 12 12 12 11 11 10 11 12 13 13 12 10 7 4 3 3 2 1 0 0 0 0 0 1 2 3 6 7 4 2 1 1 2 2 1 1 2 2 2 2
5 6 8 10 10 10 11 12 11 10 10 12 12 12 10 7 5 4 3 3 2 1 0 0 0 0 1 1 3 5 4 2 1 1 0 1 1 0 0 1 1 1 1
6 7 8 9 8 8 10 12 11 10 10 10 10 10 9 7 5 4 3 3 3 1 1 1 1 1 0 1 2 3 2 1 1 1 0 0 0 0 0 0 0 0 1
7 7 7 6 6 6 8 10 10 10 10 9 8 8 8 7 6 4 3 3 3 3 3 4 2 1 0 0 1 1 1 2 3 2 1 0 0 0 0 0 0 0 0
7 7 6 5 4 4 6 7 8 9 8 7 6 6 6 6 5 4 3 3 3 4 5 5 3 1 0 0 0 0 1 2 4 3 1 0 0 0 0 0 0 0 0
8 8 7 6 5 5 6 6 7 7 6 4 4 4 5 5 4 3 3 3 3 4 6 5 3 1 0 0 0 0 0 1 1 1 0 0 0 0 0 0 0 0 0
10 10 9 8 8 8 8 7 7 7 5 4 4 4 4 5 4 3 4 5 5 6 7 7 4 1 0 0 0 0 0 0 0 0 0 0 0 0 0 0 0 0 0
12 11 11 10 10 10 9 9 9 8 6 6 6 6 6 6 6 5 6 8 8 9 9 8 6 2 0 0 0 0 0 0 0 0 0 0 0 0 0 0 0 0 0
13 12 12 12 10 9 10 10 10 9 8 8 7 7 8 9 8 6 7 9 9 10 9 8 7 4 1 0 0 0 0 0 0 0 0 0 0 0 0 0 0 0 0
13 13 13 12 10 9 8 9 11 12 11 9 8 7 9 9 8 7 7 8 8 9 9 8 7 5 2 1 0 0 0 0 0 0 0 0 0 0 0 0 0 0 0
14 15 15 12 10 8 7 6 8 12 13 11 10 10 10 9 9 8 8 7 7 8 8 8 8 6 3 1 0 0 0 0 0 0 0 0 0 0 0 0 0 0 0
15 16 15 12 9 7 6 5 5 8 10 11 10 11 10 9 9 9 8 7 7 7 7 7 7 5 3 1 0 0 0 0 0 0 0 0 0 0 0 0 0 0 0
16 16 15 11 7 6 5 3 3 5 7 8 8 8 8 7 6 6 7 8 8 8 8 6 5 3 1 0 0 0 0 0 0 0 0 0 0 0 0 0 0 0 0
16 17 15 10 7 6 5 2 2 5 6 6 6 6 5 5 5 4 6 8 9 9 9 7 3 1 0 0 0 0 0 0 0 0 0 0 0 0 0 0 0 0 0
Wind_Speed
2 2 2 2 2 2 2 3 3 3 3 3 3 4 4 4 4 3 3 9 9 9 9 8 8 7 7 7 8 8 8 8 8 8 7 7 7 7 7 8 8 7 8
2 2 2 2 2 2 2 3 3 3 2 2 3 3 4 4 4 4 3 5 9 9 9 8 8 8 8 8 8 8 8 8 7 7 7 7 7 7 8 8 8 8 8
3 3 3 2 2 2 3 3 3 2 2 2 2 2 2 3 4 4 4 3 4 8 9 9 8 8 8 8 8 8 8 8 7 7 7 7 7 6 6 6 7 7 7
3 3 3 2 2 2 3 3 2 2 2 2 1 1 1 2 3 4 4 4 3 3 6 9 9 8 8 8 8 8 8 7 6 7 7 6 6 6 5 5 5 5 5
3 3 3 2 2 3 2 3 2 2 2 2 2 1 1 2 2 3 3 4 4 3 3 6 8 8 8 9 9 8 8 7 7 7 7 6 6 6 6 6 6 5 5
3 3 3 2 3 3 2 2 2 2 2 2 2 1 1 2 2 3 4 3 3 4 4 4 4 5 9 9 9 9 9 8 7 8 7 7 6 6 6 6 6 6 6
3 3 3 2 2 2 3 3 2 2 1 2 2 1 1 1 2 3 3 3 4 4 4 4 3 3 3 8 9 9 9 9 8 8 8 8 7 7 6 6 6 6 6
3 3 3 3 2 2 2 2 2 2 1 2 2 2 1 2 2 1 2 3 3 3 3 4 4 4 3 3 5 10 10 10 9 8 9 9 8 8 7 7 7 7 7
2 3 3 3 3 3 3 3 3 3 2 2 2 3 2 2 1 2 1 2 2 2 3 3 4 4 4 3 3 6 9 9 10 9 9 9 8 8 8 8 8 7 7
2 2 3 3 3 3 3 3 3 3 3 2 1 1 2 3 3 1 2 1 2 3 3 3 3 3 3 3 4 6 8 9 9 9 9 8 8 7 7 7 8 7 7
1 2 2 2 2 2 3 3 3 3 3 3 2 1 1 1 2 2 2 2 1 2 3 3 3 3 3 3 3 5 7 8 8 8 8 7 8 7 7 7 7 7 7
1 1 1 2 2 2 2 3 3 3 3 3 2 2 2 2 2 2 2 2 2 2 2 2 3 3 3 3 5 7 8 7 7 8 8 8 8 8 8 7 7 7 6
1 1 1 1 2 2 2 2 2 2 3 2 3 2 2 2 2 2 3 2 1 1 1 2 2 3 3 2 3 7 7 8 8 8 8 7 7 7 7 7 7 6 6
2 2 2 2 2 2 2 2 2 2 2 2 3 2 2 2 2 2 3 3 1 1 1 3 1 3 3 3 4 6 4 7 7 8 8 8 7 6 6 6 6 5 5
2 1 1 1 1 1 2 2 1 2 2 2 2 2 2 2 2 2 2 3 4 2 3 3 2 3 2 3 4 3 3 6 8 8 9 9 8 8 7 7 6 6 5
2 2 1 1 1 1 1 1 1 1 1 1 1 1 1 2 1 2 2 2 3 4 3 3 3 3 3 3 4 3 4 8 9 9 9 9 9 9 8 8 8 7 7
2 2 2 2 1 1 1 1 2 1 2 2 2 2 2 2 2 1 2 2 2 3 3 3 2 2 2 3 2 2 3 4 4 9 9 9 9 9 9 9 8 8 7
2 2 2 2 2 2 2 2 2 2 2 2 3 2 3 2 2 2 2 2 2 3 3 4 2 2 3 3 3 3 3 3 3 7 9 9 9 9 9 8 8 7 7
2 2 2 2 2 2 2 2 2 2 3 3 3 3 3 2 3 2 3 2 2 2 2 3 3 2 1 1 1 2 3 2 3 5 8 8 9 9 9 8 8 8 8
3 3 3 3 3 2 2 2 2 3 3 3 3 3 4 4 4 4 3 3 3 2 2 2 2 2 1 1 2 2 2 2 3 3 4 5 7 8 9 9 9 8 8
3 3 3 3 3 3 3 3 3 3 3 3 3 3 3 4 4 3 3 3 3 3 2 2 2 2 2 2 3 3 3 2 3 3 2 3 3 3 5 8 9 9 8
3 3 3 3 3 3 3 4 4 3 3 3 4 3 3 4 4 5 5 5 5 4 4 4 3 4 5 4 3 3 3 2 3 3 3 3 3 4 5 4 8 9 9
3 3 3 3 3 4 4 4 5 3 3 4 4 3 3 3 3 3 5 5 6 7 6 5 5 6 5 5 4 4 4 4 5 3 3 3 3 4 4 5 10 10 10
3 4 4 4 4 4 4 4 4 3 3 4 4 4 4 4 3 3 3 3 4 5 7 5 6 6 6 5 6 6 6 4 3 2 3 3 3 4 4 4 9 12 12
3 4 4 4 4 5 5 5 4 3 3 4 4 4 4 4 5 4 3 4 4 5 5 6 7 6 6 6 5 3 3 3 3 3 3 3 2 2 2 4 5 10 11
4 3 3 4 4 5 5 6 5 3 3 4 4 4 5 5 6 5 4 4 5 5 4 3 4 5 5 5 6 6 5 4 3 3 4 4 2 2 2 2 3 3 5
Wind_Direction
127 124 123 123 121 127 131 123 126 133 139 143 149 151 156 160 164 170 180 181 179 181 185 186 186 189 193 198 201 203 204 206 203 202 206 209 210 209 212 216 217 214 210
127 125 123 124 128 133 135 131 133 130 130 131 138 148 159 164 166 170 177 185 186 189 194 196 195 197 200 206 208 207 207 206 206 205 205 208 215 220 219 217 218 214 214
134 133 128 126 131 130 126 122 118 117 123 127 136 150 154 167 170 176 178 182 192 198 199 200 200 204 207 208 213 213 208 207 205 204 206 209 217 219 220 214 213 210 208
143 140 137 140 135 125 125 124 123 121 124 133 153 173 165 164 178 183 182 183 191 204 207 204 206 209 212 213 216 211 206 203 204 203 204 208 209 206 205 205 203 201 203
138 135 141 147 133 124 128 138 132 142 140 150 166 178 191 189 197 195 188 191 193 199 208 211 212 214 216 217 215 210 207 206 205 207 207 205 203 202 202 203 200 202 204
132 131 128 135 135 131 132 135 142 145 154 165 160 150 210 218 207 205 206 201 197 204 208 215 222 228 223 220 217 214 215 211 209 209 207 207 208 205 202 201 201 205 205
125 132 132 136 135 144 158 154 147 147 165 150 113 59 357 279 224 219 209 199 205 207 201 208 214 218 227 220 217 216 216 214 213 210 205 206 209 209 207 206 206 206 206
138 145 147 151 150 149 153 156 149 156 192 166 146 127 17 349 327 240 209 208 212 203 209 213 209 211 218 221 213 215 216 217 215 210 207 209 212 213 212 213 210 209 209
143 153 162 163 162 163 175 184 176 172 192 220 180 158 161 211 281 313 255 217 200 199 211 207 204 209 210 214 220 219 217 217 216 215 214 214 215 213 214 212 212 213 214
142 155 156 167 170 173 181 197 190 186 178 202 243 216 188 170 168 249 308 266 219 212 215 209 207 212 210 213 216 213 215 217 218 218 218 220 220 216 214 217 219 216 213
160 160 161 153 163 178 189 198 192 196 194 196 206 212 196 181 167 164 230 275 290 246 220 208 206 210 209 206 215 213 213 216 216 214 216 219 223 217 213 218 219 219 219
280 237 181 178 185 189 196 198 198 202 205 204 202 194 184 182 192 175 194 216 239 265 241 219 209 210 207 205 216 212 209 211 216 211 209 214 219 218 218 220 221 220 219
255 252 219 206 205 211 210 197 196 215 213 205 206 209 207 209 189 170 161 189 216 262 257 248 224 208 204 202 216 211 210 207 209 209 210 213 219 218 217 219 220 220 223
221 234 219 212 215 211 211 197 201 219 215 215 221 222 216 217 194 175 171 161 171 277 262 250 243 216 210 204 210 205 206 203 204 201 203 206 207 210 210 211 212 214 214
209 220 225 211 207 207 204 189 203 221 216 225 229 221 221 226 207 195 180 167 166 206 249 239 231 225 216 212 207 199 201 208 205 199 203 204 205 207 208 208 208 204 204
202 195 217 227 240 239 217 191 207 221 198 229 222 214 240 242 231 211 195 193 179 179 224 234 226 224 215 221 211 204 212 208 205 205 207 208 210 208 206 206 208 208 206
198 189 201 213 225 244 240 209 227 208 214 237 239 219 242 236 227 225 206 198 196 176 218 256 234 221 202 215 212 210 211 209 213 215 215 213 211 208 206 207 208 207 207
206 208 209 214 217 221 215 214 237 236 226 235 241 231 245 239 237 229 215 218 217 204 198 229 238 218 219 214 199 203 211 207 215 221 219 215 213 211 207 206 206 206 206
213 219 206 208 217 220 216 223 222 231 234 238 233 222 232 219 235 240 229 227 232 231 203 203 232 218 220 207 183 212 218 219 222 223 219 217 217 217 214 211 209 209 208
209 220 214 209 209 209 221 230 227 232 245 249 242 227 226 214 221 228 233 227 222 224 214 207 225 226 212 203 169 200 232 226 232 225 218 216 218 219 216 211 209 211 212
218 219 207 210 212 213 227 228 233 237 243 255 260 245 236 231 225 221 230 222 213 214 213 212 223 218 210 194 207 202 215 229 240 217 205 220 213 219 219 218 216 214 213
222 216 212 216 227 236 236 230 223 233 237 241 254 261 256 243 244 243 243 227 208 207 214 210 218 222 225 212 206 203 198 195 248 221 190 230 203 218 221 214 214 212 212
219 221 218 210 220 235 234 233 227 220 233 237 241 247 259 258 241 244 251 244 236 234 219 208 217 227 223 212 199 209 208 207 223 211 177 228 211 225 227 216 208 211 212
217 220 220 218 226 245 244 242 237 229 239 245 244 237 237 252 250 237 240 248 248 245 238 225 220 228 228 218 204 205 208 218 240 222 182 214 215 222 226 222 214 211 212
221 219 213 217 228 253 250 244 231 226 242 253 254 245 233 239 260 251 233 243 258 263 257 240 235 236 235 226 209 192 194 194 231 235 196 201 214 221 233 232 223 213 212
224 222 227 230 231 246 253 245 227 217 239 256 262 256 243 240 251 245 232 231 248 258 261 268 259 260 249 241 223 206 200 201 214 234 208 191 196 171 251 248 222 210 212